Time,TemperatureF,DewpointF,PressureIn,WindDirection,WindDirectionDegrees,WindSpeedMPH,WindSpeedGustMPH,Humidity,HourlyPrecipIn,Conditions,Clouds,dailyrainin,SoftwareType,DateUTC
2013-11-22 00:21:00,38.0,38.0,-100.00,North,0,4.0,11.0,99,-99.99,,,-99.99,,2013-11-22 06:21:00,
2013-11-22 00:42:00,37.0,37.0,-100.00,North,0,4.0,12.0,99,-99.99,,,-99.99,,2013-11-22 06:42:00,
2013-11-22 01:42:00,36.0,36.0,-100.00,NNW,330,6.0,12.0,99,-99.99,,,-99.99,,2013-11-22 07:42:00,
2013-11-22 02:42:00,36.0,36.0,-100.00,NNW,335,4.0,13.0,99,-99.99,,,-99.99,,2013-11-22 08:42:00,
2013-11-22 03:43:00,35.0,35.0,-100.00,North,0,4.0,12.0,99,-99.99,,,-99.99,,2013-11-22 09:43:00,
2013-11-22 04:42:00,34.0,34.0,-100.00,North,0,4.0,12.0,99,-99.99,,,-99.99,,2013-11-22 10:42:00,
2013-11-22 05:42:00,33.0,33.0,-100.00,NNW,345,6.0,12.0,99,-99.99,,,-99.99,,2013-11-22 11:42:00,
2013-11-22 06:42:00,33.0,33.0,-100.00,NNW,345,6.0,12.0,99,-99.99,,,-99.99,,2013-11-22 12:42:00,
2013-11-22 07:42:00,32.0,32.0,-100.00,North,0,6.0,14.0,98,-99.99,,,-99.99,,2013-11-22 13:42:00,
2013-11-22 08:42:00,32.0,31.0,-100.00,North,0,7.0,14.0,96,-99.99,,,-99.99,,2013-11-22 14:42:00,
2013-11-22 09:22:00,32.0,31.0,-100.00,North,355,6.0,12.0,94,-99.99,,,-99.99,,2013-11-22 15:22:00,
2013-11-22 10:43:00,33.0,30.0,-100.00,North,10,7.0,12.0,90,-99.99,,,-99.99,,2013-11-22 16:43:00,
2013-11-22 11:22:00,34.0,31.0,-100.00,North,5,6.0,14.0,89,-99.99,,,-99.99,,2013-11-22 17:22:00,
2013-11-22 12:21:00,35.0,31.0,-100.00,North,5,7.0,12.0,84,-99.99,,,-99.99,,2013-11-22 18:21:00,
2013-11-22 12:42:00,36.0,31.0,-100.00,NNW,340,4.0,12.0,81,-99.99,,,-99.99,,2013-11-22 18:42:00,
2013-11-22 13:21:00,36.0,31.0,-100.00,North,5,8.0,15.0,79,-99.99,,,-99.99,,2013-11-22 19:21:00,
2013-11-22 13:42:00,37.0,31.0,-100.00,North,350,4.0,16.0,79,-99.99,,,-99.99,,2013-11-22 19:42:00,
2013-11-22 14:21:00,36.0,30.0,-100.00,North,0,9.0,16.0,78,-99.99,,,-99.99,,2013-11-22 20:21:00,
2013-11-22 16:23:00,35.0,30.0,-100.00,North,0,6.0,12.0,83,-99.99,,,-99.99,,2013-11-22 22:23:00,
2013-11-22 16:42:00,34.0,29.0,-100.00,North,0,6.0,14.0,83,-99.99,,,-99.99,,2013-11-22 22:42:00,
2013-11-22 18:21:00,30.0,27.0,-100.00,NNW,330,1.0,7.0,87,-99.99,,,-99.99,,2013-11-23 00:21:00,
2013-11-22 19:42:00,29.0,26.0,-100.00,WNW,290,5.0,9.0,88,-99.99,,,-99.99,,2013-11-23 01:42:00,
2013-11-22 20:42:00,27.0,25.0,-100.00,West,270,4.0,7.0,91,-99.99,,,-99.99,,2013-11-23 02:42:00,
2013-11-22 21:22:00,26.0,24.0,-100.00,West,275,4.0,6.0,92,-99.99,,,-99.99,,2013-11-23 03:22:00,
2013-11-22 22:13:00,25.0,24.0,-100.00,West,260,3.0,9.0,93,-99.99,,,-99.99,,2013-11-23 04:13:00,
2013-11-22 22:23:00,25.0,24.0,-100.00,West,280,5.0,7.0,93,-99.99,,,-99.99,,2013-11-23 04:23:00,
2013-11-22 23:22:00,24.0,22.0,-100.00,West,265,3.0,7.0,94,-99.99,,,-99.99,,2013-11-23 05:22:00,
2013-11-22 23:42:00,23.0,22.0,-100.00,WSW,245,4.0,6.0,93,-99.99,,,-99.99,,2013-11-23 05:42:00,